This is the latest recevied weather packets stored in our database for station/object KN6CRX. If no packets are shown the sender has not sent any weather packets the latest 10 day(s).
| Time | Temp. | Humidity | Pressure | Rain* | Wind** | Luminosity | Snow |
|---|---|---|---|---|---|---|---|
| 1787370850 | 25° C | 41% | 1022.9 hPa | 0 mm | - | 0 W/m² | - |
| 1787370547 | 25° C | 41% | 1022.6 hPa | 0 mm | - | 0 W/m² | - |
| 1787370247 | 25° C | 42% | 1022.8 hPa | 0 mm | - | 0 W/m² | - |
| 1787369942 | 25° C | 42% | 1022.6 hPa | 0 mm | - | 0 W/m² | - |
| 1787369638 | 25.56° C | 41% | 1022.6 hPa | 0 mm | - | 0 W/m² | - |
| 1787369336 | 25.56° C | 40% | 1022.8 hPa | 0 mm | - | 0 W/m² | - |
| 1787369031 | 25.56° C | 40% | 1023.1 hPa | 0 mm | - | 0 W/m² | - |
| 1787368729 | 26.11° C | 39% | 1023 hPa | 0 mm | - | 0 W/m² | - |
| 1787368425 | 26.11° C | 37% | 1023 hPa | 0 mm | - | 0 W/m² | - |
| 1787368121 | 26.67° C | 36% | 1022.9 hPa | 0 mm | - | 0 W/m² | - |
| 1787367817 | 26.67° C | 36% | 1022.6 hPa | 0 mm | - | 0 W/m² | - |
| 1787367512 | 27.22° C | 35% | 1022.9 hPa | 0 mm | - | 0 W/m² | - |
| 1787367206 | 27.22° C | 34% | 1022.6 hPa | 0 mm | - | 0 W/m² | - |
| 1787366906 | 27.22° C | 33% | 1022.8 hPa | 0 mm | - | 0 W/m² | - |
| 1787366601 | 27.78° C | 33% | 1022.8 hPa | 0 mm | - | 0 W/m² | - |
| 1787366301 | 27.78° C | 33% | 1022.9 hPa | 0 mm | - | 0 W/m² | - |
| 1787365997 | 27.78° C | 33% | 1022.9 hPa | 0 mm | - | 0 W/m² | - |
| 1787365692 | 27.78° C | 33% | 1022.6 hPa | 0 mm | - | 0 W/m² | - |
| 1787365388 | 27.22° C | 33% | 1022.6 hPa | 0 mm | - | 1 W/m² | - |
| 1787365083 | 27.22° C | 34% | 1022.4 hPa | 0 mm | - | 1 W/m² | - |
| 1787364779 | 26.67° C | 35% | 1022.5 hPa | 0 mm | - | 3 W/m² | - |
| 1787364475 | 26.67° C | 36% | 1022.2 hPa | 0 mm | - | 7 W/m² | - |
| 1787364170 | 26.67° C | 38% | 1022.4 hPa | 0 mm | - | 14 W/m² | - |
| 1787363869 | 26.67° C | 37% | 1022.4 hPa | 0 mm | - | 17 W/m² | - |
| 1787363564 | 27.78° C | 35% | 1022.5 hPa | 0 mm | - | 22 W/m² | - |
* Rain latest hour (hover to see other rain measurements)
** Current wind speed in m/s (hover to see current wind gust speed)